Regional Weather Roundup
Issued by NWS

Home | Current Version | Previous Version | Graphics & Text | Print | Product List | Glossary On
Versions: 1 2 3 4 5 6 7 8 9 10 11 12 13 14 15 16 17 18 19 20 21 22 23 24 25 26 27 28 29 30 31 32 33 34 35 36 37 38 39 40 41 42 43 44 45 46 47 48 49 50
000
ASUS44 KMEG 300700
RWRTN
TENNESSEE HOURLY STATE WEATHER ROUNDUP
NATIONAL WEATHER SERVICE MEMPHIS TN
200 AM CDT WED JUL 30 2014

TNZ002-004-019-021-049-052-054-088>092-300800-
WEST TENNESSEE

CITY           SKY/WX    TMP DP  RH WIND       PRES   REMARKS
MEMPHIS INTL   PTCLDY    65  56  72 CALM      30.09F
NWS MEMPHIS      N/A     60 N/A N/A MISG        N/A
JACKSON        CLEAR     57  55  93 CALM      30.10F
DYERSBURG      CLEAR     59  50  72 CALM      30.11F
PARIS            N/A     52  50  93 CALM      30.11F VSB 3/4
SAVANNAH       CLEAR     55  55 100 CALM      30.11S
$$

TNZ008-025-027-028-033-062-065-066-300800-
NORTH MIDDLE TENNESSEE

CITY           SKY/WX    TMP DP  RH WIND       PRES   REMARKS
NASHVILLE      CLEAR     61  56  83 CALM      30.10S
CLARKSVILLE    CLEAR     58  54  86 CALM      30.10S
COOKEVILLE     CLEAR     54  54 100 CALM      30.10S
CROSSVILLE     CLEAR     54  51  90 CALM      30.13S
$$

TNZ061-075-076-078-094-096-097-300800-
SOUTH MIDDLE TENNESSEE

CITY           SKY/WX    TMP DP  RH WIND       PRES   REMARKS
WINCHESTER     CLEAR     54  54 100 CALM      30.11S
SHELBYVILLE    CLEAR     57  55  94 CALM      30.11S
$$

TNZ017-018-042-046-047-300800-
NORTHEAST TENNESSEE

CITY           SKY/WX    TMP DP  RH WIND       PRES   REMARKS
TRI CITIES     CLEAR     53  50  89 CALM      30.11S
ELIZABETHTON   SUNNY     50  48  93 CALM        N/A
$$

TNZ012-013-036-069-073-074-300800-
CENTRAL EAST TENNESSEE

CITY           SKY/WX    TMP DP  RH WIND       PRES   REMARKS
KNOXVILLE      CLEAR     59  54  83 N6        30.09S
OAK RIDGE      CLEAR     58  55  90 CALM      30.12S
GATLINBURG     SUNNY     54  54 100 CALM      30.10S
$$

TNZ083-085-099-300800-
SOUTHEAST TENNESSEE

CITY           SKY/WX    TMP DP  RH WIND       PRES   REMARKS
CHATTANOOGA    CLEAR     61  54  77 NW3       30.08F
$$

SKY/WX REPORTED AS FAIR MEANS FEW OR NO CLOUDS BELOW
12 THOUSAND FEET.



USA.gov is the U.S. government's official web portal to all federal, state and local government web resources and services.